Regional Weather Roundup
Issued by NWS

Home | Current Version | Previous Version | Text Only | Print | Product List | Glossary On
Versions: 1 2 3 4 5 6 7 8 9 10 11 12 13 14 15 16 17 18 19 20 21 22 23 24 25 26 27 28 29 30 31 32 33 34 35 36 37 38 39 40 41 42 43 44 45 46 47 48 49 50
000
ASHW40 PHFO 251830
RWRHI

WEATHER ROUNDUP FOR HAWAII
NATIONAL WEATHER SERVICE HONOLULU HI
800 AM HST FRI JUL 25 2014

THIS IS AN AUTOMATED REPORT THAT HAS NOT BEEN QUALITY CONTROLLED.

NOTE..."FAIR" INDICATES FEW OR NO CLOUDS BELOW 12,000 FEET WITH NO
SIGNIFICANT WEATHER AND/OR OBSTRUCTIONS TO VISIBILITY.

* - THESE SITES REPORT LIMITED FIELDS

HIZ001>004-251900-
KAUAI-NIIHAU-

CITY           SKY/WX    TMP DP  RH WIND       PRES   REMARKS
LIHUE APT      MOSUNNY   79  71  76 NE12      30.04R
PORT ALLEN*      N/A     77 N/A N/A NE8         N/A
POIPU*           N/A     77 N/A N/A NE9G20      N/A
PRINCEVILLE*   NOT AVBL
KOKOLE POINT*  NOT AVBL
MOLOAA DAIRY*  NOT AVBL
WAIMEA HTS*    NOT AVBL
PUU OPAE*      NOT AVBL
PUU LUA*       NOT AVBL
MAKAHA RIDGE*  NOT AVBL
$$

HIZ005>011-251900-
OAHU-

CITY           SKY/WX    TMP DP  RH WIND       PRES   REMARKS
HONOLULU       MOSUNNY   80  66  62 NE13      30.00R
KALAELOA       SUNNY     80  66  62 VRB3      30.02R
KANEOHE MCB    CLOUDY    75  65  70 E8        30.02R
WHEELER FIELD  PTSUNNY   75  66  72 VRB2      30.02S
BELLOWS*         N/A    N/A N/A N/A NE15        N/A
KAHUKU*          N/A    N/A N/A N/A E13G22      N/A
WHEELER*       NOT AVBL
WAIANAE HARBOR NOT AVBL
DILLINGHAM*      N/A     75  68  78 SE1         N/A
KAHUKU TRN*      N/A     73  70  88 E9G18       N/A
KAWAILOA*      NOT AVBL
KII*             N/A     75  72  88 CALM        N/A
MAKUA RANGE*     N/A     82  64  54 SE3G10      N/A
OAHU FOREST NW NOT AVBL
SCHOFIELD BRK*   N/A     73  64  73 E1          N/A
SCHOFIELD S*   NOT AVBL
WAIANAE VLY*   NOT AVBL
KUAOKALA*      NOT AVBL
HONOULIUULI*   NOT AVBL
MOKUOLOE IS*     N/A    N/A N/A N/A MISG        N/A
PALEHUA*       NOT AVBL
WAIAWA PHB*    NOT AVBL
$$

HIZ012>013-251900-
MOLOKAI-

CITY           SKY/WX    TMP DP  RH WIND       PRES   REMARKS
MOLOKAI AIRPT  MOSUNNY   77  71  82 NE8       30.02R
KALAUPAPA      NOT AVBL
MAKAPULAPAI*   NOT AVBL
MOLOKAI 1*     NOT AVBL
PUU ALII*        N/A     59  58  97 E3G12       N/A
$$

HIZ016-251900-
KAHOOLAWE-

CITY           SKY/WX    TMP DP  RH WIND       PRES   REMARKS
KAHOOLAWE*     NOT AVBL
HAKIOAWA*        N/A     79  66  64 MISG      30.12
HONOKANAIA*      N/A     80  65  59 NE8G14    30.01
KANELOA*         N/A     77  68  73 E14G24      N/A
KEALIALALO*      N/A    N/A N/A N/A E12G18    30.32
LUA MAKIKA*    NOT AVBL
$$

HIZ014>015-251900-
LANAI-

CITY           SKY/WX    TMP DP  RH WIND       PRES   REMARKS
LANAI CITY     FAIR      77  64  63 CALM      30.06R
LANAI 1*       NOT AVBL
$$

HIZ017>028-251900-
MAUI-

CITY           SKY/WX    TMP DP  RH WIND       PRES   REMARKS
KAHULUI        MOSUNNY   79  67  66 NE15G21   30.00R
KAPALUA-W MAUI MOSUNNY   77  66  69 E8        30.00R
HANA AIRPORT   MOSUNNY   81  70  69 NE9       30.05S
HANA*            N/A     79 N/A N/A E7          N/A
HALEAKALA SUMM   N/A     55   9  15 E13G31      N/A
MAALAEA BAY*   NOT AVBL
HALEAKALA*     NOT AVBL
KAUPO GAP*     NOT AVBL
KULA 1*          N/A    N/A N/A N/A E2          N/A
$$

HIZ023>026-251900-
BIG ISLAND OF HAWAII COAST AND LOWER SLOPES-

CITY           SKY/WX    TMP DP  RH WIND       PRES   REMARKS
KAILUA KONA    MOSUNNY   81  70  69 SE9       29.96R
HILO           PTSUNNY   74  68  81 CALM      30.01R
HONOKAA*       NOT AVBL
KAWAIHAE MWT*    N/A     82 N/A N/A NW7         N/A
KAWAIHAE*        N/A     81 N/A N/A NW7         N/A
SOUTH POINT*     N/A     75 N/A N/A NE16G23     N/A
UPOLU AIRPORT*   N/A    N/A N/A N/A E10G17      N/A
KAMUELA*       CLEAR     72  61  68 NE15      30.09S
HAKALAU*         N/A     59  48  67 S5G12       N/A
KALOKO-HONOKO*   N/A     81  72  74 SE3       29.96R
PALI 2*          N/A     73  57  56 N8G14       N/A
KEALAKOMO*       N/A     79  63  57 N9G16       N/A
KAUPULEHU*     NOT AVBL
KAPAPALA*        N/A     73  60  63 VRB5G12     N/A
LOWER KAHUKU*  NOT AVBL
PUHE CS*       NOT AVBL
PUHO CS*         N/A     77  64  65 E1          N/A
PTA KEAMUKU*     N/A     70  57  64 NE5         N/A
WAIKOLOA*      NOT AVBL
$$

HIZ027>028-251900-
BIG ISLAND OF HAWAII INTERIOR AND SUMMMITS-

CITY           SKY/WX    TMP DP  RH WIND       PRES   REMARKS
BRADSHAW FIELD SUNNY     61  37  40 W5        30.31R
MK VISITOR CEN NOT AVBL
MAUNA KEA*       N/A     45  -8  11 E17         N/A
MAUNA LOA*       N/A     57 -18   4 MISG        N/A
MAUNA LOA 1*     N/A    N/A N/A N/A MISG        N/A
PTA KIPUKA*      N/A     63  55  77 SW5G10      N/A
PTA RANGE 17*    N/A     63  48  59 SW6G15      N/A
PTA WEST*        N/A     64  57  77 W8          N/A
NENE CABIN*    NOT AVBL
AHUMOA*        NOT AVBL
PTA PORTABLE*  NOT AVBL
PUU MALI*      NOT AVBL
$$

HIC003-251900-
NORTHWEST ISLANDS-

CITY           SKY/WX    TMP DP  RH WIND       PRES   REMARKS
MIDWAY ISLAND  CLEAR     81  72  74 S9        30.11R
MIDWAY NOS*    NOT AVBL
FRENCH FRIGATE NOT AVBL
$$

PHZ110>124-180-251900-
BUOY REPORTS

STATION/POSITION TIME  TEMP    WIND        PRES    WAVE   SWELL
                       AIR SEA DIR/SP/G            HT/PER HT/DIR
                 (UTC) (F)     (DEG/KT/KT) (MB)    (FT/S) (FT/D)
BUOY 51001       NOT AVBL
BUOY 51101       1800   78 80   60/ 14/ 17 1017.6R   5/ 9   3/110
BUOY 51100       1800   76 77   50/ 12/ 14 1017.5R
BUOY 51003       1800   80 81   50/ 14/ 16 1015.1R   7/ 8   7
BUOY 51004       1706   79 80   60/ 17/ 19 1013.8R   6/ 9   3/ 90
BARBERS PT BUOY  NOT AVBL
WAIMEA BAY BUOY  1800      80                N/A     3/ 7
KAILUA BAY BUOY  1800      80                N/A     5/ 8
LANAI BUOY       1800      81                N/A     2/14   2/190
BARBERS PT 2     1800      80                N/A     3/ 8   2/180
PAUWELA MAUI     1800      78                N/A     5/ 8
HILO             NOT AVBL
KANEOHE BAY BUOY 1800      79                N/A     4/ 6
HANALEI KAUAI    NOT AVBL
KAHULUI HARBOR   1800   78 80   50/ 10/ 15 1015.8R
HONOLULU HARBOR  1800   79      50/  2/  8 1016.2R
KILO NALU        NOT AVBL
HILO HARBOR      1800   74     170/  1/  4 1015.9R
MOKUOLOE         1800      81              1016.6R
NAWILIWILI       1800      81                N/A
WHOTS BUOY       NOT AVBL
BUOY 51028       NOT AVBL
$$

......................KEY........................................
  SKY/WX - SKY CONDITIONS/PRESENT WEATHER
  TMP    - TEMPERATURE IN FAHRENHEIT
  DWPT   - DEWPOINT IN FAHRENHEIT
  RH     - RELATIVE HUMIDITY IN PERCENT
  WIND   - DIRECTION AND SPEED /MPH FOR ISLANDS...KTS FOR BUOYS/
  PRES   - MEAN SEA LEVEL PRESSURE IN INCHES OF HG
  VSB    - VISIBILITY IN MILES
  HX     - HEAT INDEX
  WCI    - WIND CHILL INDEX
  VRB    - VARIABLE WIND DIRECTION
  N/A    - NOT AVAILABLE


USA.gov is the U.S. government's official web portal to all federal, state and local government web resources and services.